GW5434 Weather Reports


Display with metric or nautical units.
time (UTC)temp
F
wind
direction
speed
MPH
gust
MPH
rain 1hr
in
rain 24hr
in
rain mn
in
humidity
%
barometer
mb
20260903224525 87 139 0.0 3.0 0.00 0.00 0.00 73 1014.2
20260903223013 88 276 1.0 4.0 0.00 0.00 0.00 73 1014.1
20260903221520 90 215 1.0 5.0 0.00 0.00 0.00 72 1013.8
20260903220030 92 221 0.0 0.0 0.00 0.00 0.00 69 1013.9
20260903214537 92 175 0.0 0.0 0.00 0.00 0.00 67 1013.7
20260903213011 92 322 1.0 1.0 0.00 0.00 0.00 65 1013.3
20260903211514 93 277 0.0 5.0 0.00 0.00 0.00 63 1013.3
20260903210020 93 290 2.0 3.0 0.00 0.00 0.00 63 1013.5
20260903204527 93 307 3.0 8.0 0.00 0.00 0.00 62 1013.7
20260903203029 94 316 1.0 3.0 0.00 0.00 0.00 60 1013.8
20260903201513 94 238 1.0 3.0 0.00 0.00 0.00 54 1014.0
20260903200016 95 323 2.0 4.0 0.00 0.00 0.00 55 1014.1
20260903194506 94 72 1.0 7.0 0.00 0.00 0.00 55 1014.2
20260903193004 96 26 2.0 6.0 0.00 0.00 0.00 53 1014.5
20260903191508 98 326 2.0 5.0 0.00 0.00 0.00 47 1014.5
20260903190011 97 344 3.0 9.0 0.00 0.00 0.00 53 1014.7
20260903184504 99 101 2.0 6.0 0.00 0.00 0.00 47 1014.9
20260903183006 98 38 3.0 11.0 0.00 0.00 0.00 50 1015.1
20260903181507 98 137 3.0 5.0 0.00 0.00 0.00 52 1015.3
20260903180010 96 115 1.0 4.0 0.00 0.00 0.00 57 1015.6
20260903174514 95 123 2.0 8.0 0.00 0.00 0.00 56 1015.9
20260903173003 96 220 0.0 6.0 0.00 0.00 0.00 55 1016.0
20260903171506 95 30 2.0 6.0 0.00 0.00 0.00 56 1016.2
20260903170007 94 92 1.0 4.0 0.00 0.00 0.00 56 1016.4
20260903164512 94 282 2.0 7.0 0.00 0.00 0.00 58 1016.6
20260903163015 93 23 2.0 5.0 0.00 0.00 0.00 61 1016.8
20260903161519 93 110 2.0 4.0 0.00 0.00 0.00 60 1016.8
20260903160003 92 112 1.0 4.0 0.00 0.00 0.00 65 1016.7
20260903154505 91 308 2.0 5.0 0.00 0.00 0.00 66 1016.8
20260903153015 90 93 1.0 5.0 0.00 0.00 0.00 69 1016.8
20260903151518 88 302 2.0 6.0 0.00 0.00 0.00 70 1016.7
20260903150022 88 70 1.0 5.0 0.00 0.00 0.00 72 1016.6
20260903144505 87 295 2.0 6.0 0.00 0.00 0.00 74 1016.7
20260903143010 86 67 3.0 7.0 0.00 0.00 0.00 76 1016.8
20260903141515 85 117 0.0 5.0 0.00 0.00 0.00 78 1016.7
20260903140021 84 327 1.0 5.0 0.00 0.00 0.00 80 1016.8
20260903134519 82 335 1.0 5.0 0.00 0.00 0.00 82 1016.7
20260903133008 81 321 0.0 0.0 0.00 0.00 0.00 84 1016.8
20260903131511 79 331 0.0 0.0 0.00 0.00 0.00 86 1017.0
20260903130014 77 114 0.0 0.0 0.00 0.00 0.00 91 1016.8
20260903124523 74 114 0.0 0.0 0.00 0.00 0.00 94 1016.8
20260903123031 73 114 0.0 0.0 0.00 0.00 0.00 94 1016.8
20260903121507 72 114 0.0 0.0 0.00 0.00 0.00 94 1016.8
20260903120012 72 114 0.0 0.0 0.00 0.00 0.00 94 1016.6
20260903114520 72 114 0.0 0.0 0.00 0.00 0.00 93 1016.6
20260903113027 72 114 0.0 0.0 0.00 0.00 0.00 93 1016.4
20260903111535 72 114 0.0 0.0 0.00 0.00 0.00 93 1016.2
20260903110015 73 114 0.0 0.0 0.00 0.00 0.00 93 1016.1
20260903104514 73 114 0.0 0.0 0.00 0.00 0.00 93 1016.1
20260903103019 73 114 0.0 0.0 0.00 0.00 0.00 93 1016.0
20260903101536 73 114 0.0 0.0 0.00 0.00 0.00 93 1016.0
20260903100027 73 114 0.0 0.0 0.00 0.00 0.00 93 1015.9
20260903094511 73 114 0.0 0.0 0.00 0.00 0.00 93 1015.9
20260903093018 73 113 0.0 0.0 0.00 0.00 0.00 92 1015.9
20260903091523 74 113 0.0 0.0 0.00 0.00 0.00 92 1015.9
20260903090027 74 114 0.0 0.0 0.00 0.00 0.00 93 1015.9
20260903084526 74 114 0.0 0.0 0.00 0.00 0.00 92 1016.1
20260903083018 74 114 0.0 0.0 0.00 0.00 0.00 92 1016.1
20260903081529 74 113 0.0 0.0 0.00 0.00 0.00 92 1016.1
20260903080023 74 113 0.0 0.0 0.00 0.00 0.00 92 1016.0
20260903074530 74 113 0.0 0.0 0.00 0.00 0.00 92 1016.0
20260903073027 75 113 0.0 0.0 0.00 0.00 0.00 91 1016.0
20260903071516 75 113 0.0 0.0 0.00 0.00 0.00 91 1016.1
20260903070020 75 113 0.0 0.0 0.00 0.00 0.00 90 1016.2
20260903064527 75 113 0.0 0.0 0.00 0.00 0.00 91 1016.3
20260903063051 75 114 0.0 0.0 0.00 0.00 0.00 90 1016.4
20260903061530 76 114 0.0 0.0 0.00 0.00 0.00 89 1016.5
20260903060020 76 114 0.0 0.0 0.00 0.00 0.00 89 1016.7
20260903054520 77 114 0.0 0.0 0.00 0.00 0.00 88 1016.8
20260903053026 77 115 0.0 0.0 0.00 0.00 0.00 88 1016.9
20260903051532 76 171 0.0 0.0 0.00 0.00 0.00 89 1016.9
20260903050038 77 171 0.0 0.0 0.00 0.00 0.00 88 1017.0
20260903044519 77 166 0.0 0.0 0.00 0.00 0.00 87 1017.0
20260903043003 78 166 0.0 0.0 0.00 0.00 0.00 87 1016.9
20260903041510 78 166 0.0 0.0 0.00 0.00 0.00 86 1016.8
20260903040009 79 166 0.0 0.0 0.00 0.00 0.00 85 1016.9
20260903034526 79 166 0.0 0.0 0.00 0.00 0.00 84 1016.8
20260903033024 80 166 0.0 0.0 0.00 0.00 0.00 82 1016.8
20260903031504 81 166 0.0 0.0 0.00 0.00 0.00 81 1016.9
20260903030009 82 200 0.0 0.0 0.00 0.00 0.00 79 1016.7
20260903024513 83 217 0.0 1.0 0.00 0.00 0.00 78 1016.8
20260903023020 83 131 0.0 2.0 0.00 0.00 0.00 76 1016.7
20260903021528 84 229 1.0 4.0 0.00 0.00 0.00 76 1016.7
20260903020006 84 217 1.0 4.0 0.00 0.00 0.00 75 1016.5
20260903014510 85 207 1.0 5.0 0.00 0.00 0.00 75 1016.5
20260903013014 86 133 2.0 6.0 0.00 0.00 0.00 74 1016.2
20260903011520 86 240 1.0 5.0 0.00 0.00 0.00 73 1016.0
20260903010031 87 191 2.0 4.0 0.00 0.00 0.00 72 1015.8
20260903004508 88 194 0.0 3.0 0.00 0.00 0.00 69 1015.4
20260903003011 89 210 2.0 3.0 0.00 0.00 0.00 67 1015.2
20260903001517 90 90 0.0 8.0 0.00 0.00 0.00 65 1015.2
20260903000023 91 68 0.0 0.0 0.00 0.00 0.00 64 1015.0
20260902234536 94 91 0.0 1.0 0.00 0.00 0.00 60 1014.9
20260902233009 96 97 0.0 3.0 0.00 0.00 0.00 55 1014.9
20260902231525 97 110 0.0 4.0 0.00 0.00 0.00 54 1014.9
20260902230027 97 90 2.0 3.0 0.00 0.00 0.00 49 1014.6